Location: Aalen
(48.8330°N, 10.1000°E)
Time: 20:43:52
(UTC+02:00)

S-56A Canister/Altair - Pass Details

Date: 03 August 2021
Orbit: 632 x 2500 km, 38.9° (Epoch: 19 September)

Event Time Altitude Azimuth Distance (km) Brightness Sun altitude
Rises 20:08:56 0° 276° (W) 6,046 14.1 6.1°
Reaches altitude 10° 20:13:03 10° 270° (W) 5,125 13.4 5.5°
Maximum altitude 20:26:41 43° 207° (SSW) 3,112 10.7 3.4°
Drops below altitude 10° 20:38:45 10° 142° (SE) 4,545 10.9 1.5°
Sets 20:42:11 0° 136° (SE) 5,326 11.2 1.0°
